Temp
60 59 59 59 58 58 58 54 56 54 54 53 52 51 51 50 49 49 49 49 54 54
59 59 58 58 57 56 56 56 56 53 53 52 50 49 48 47 47 47 47 46 47 50
60 59 59 58 58 57 55 56 54 53 53 52 49 48 48 46 45 45 45 44 43 43
60 60 59 58 58 58 56 55 53 51 49 47 47 47 47 45 45 45 43 43 42 42
58 59 59 58 57 57 55 52 52 48 47 46 45 44 43 42 43 42 41 41 41 41
56 57 58 57 57 57 54 53 52 47 45 44 43 43 43 42 43 42 42 42 42 42
57 56 56 56 55 55 54 52 50 47 45 45 44 43 43 42 41 42 42 42 42 42
58 56 54 55 54 54 52 51 50 47 46 45 45 43 42 41 41 40 40 40 41 41
56 56 54 54 54 53 51 50 49 47 46 44 44 40 40 41 40 39 38 37 37 39
56 55 54 53 53 52 50 50 48 46 46 43 42 40 40 39 39 38 37 36 36 35
55 54 54 50 50 49 49 48 47 45 44 43 40 39 39 38 38 36 35 36 35 34
53 50 49 44 45 45 46 45 45 44 40 38 36 38 37 37 35 34 33 34 34 33
49 45 42 40 38 39 41 42 42 37 38 39 36 37 37 36 34 32 31 32 33 33
40 38 38 37 38 38 38 37 36 35 35 36 37 36 36 36 33 32 30 31 31 32
MSLP
1010.33 1009.98 1009.48 1009.03 1008.66 1008.31 1007.76 1007.48 1006.89 1006.07 1005.74 1007.25 1007.82 1008.15 1009.04 1008.95 1008.65 1009.14 1011.71 1013.17 1014.42 1012.24
1009.96 1009.80 1009.49 1009.18 1008.83 1008.30 1008.06 1007.60 1007.15 1006.71 1006.35 1005.68 1007.55 1007.39 1007.14 1008.76 1008.64 1009.38 1010.85 1010.93 1013.54 1013.73
1009.59 1009.49 1009.24 1009.14 1008.86 1008.43 1007.70 1007.68 1007.56 1007.26 1006.87 1007.15 1007.23 1006.72 1006.85 1008.28 1008.37 1009.03 1009.81 1009.91 1011.59 1013.63
1008.92 1008.88 1008.70 1008.83 1008.61 1008.31 1007.80 1007.63 1007.52 1007.80 1007.53 1007.46 1007.54 1007.52 1006.70 1007.60 1008.07 1008.72 1009.35 1009.95 1010.45 1011.92
1008.58 1008.31 1008.01 1008.18 1008.32 1008.26 1008.11 1007.32 1007.21 1007.72 1007.36 1007.71 1007.50 1007.48 1007.54 1007.42 1007.50 1007.99 1008.89 1010.03 1010.77 1011.71
1007.87 1007.90 1007.10 1007.43 1007.64 1007.70 1007.61 1007.21 1006.96 1007.22 1007.59 1007.48 1007.12 1007.34 1007.45 1007.25 1007.14 1008.28 1008.46 1009.75 1010.41 1011.25
1007.72 1007.45 1007.19 1006.89 1007.15 1007.08 1007.09 1007.07 1006.95 1006.80 1007.03 1007.20 1007.06 1007.53 1007.73 1007.82 1007.51 1007.88 1009.24 1009.73 1010.04 1011.13
1007.47 1007.26 1007.02 1006.57 1006.71 1006.74 1006.75 1006.67 1006.60 1006.52 1006.68 1007.03 1007.09 1007.01 1007.65 1007.64 1007.56 1008.58 1009.95 1010.14 1010.49 1011.00
1007.58 1007.24 1007.00 1006.86 1006.57 1006.56 1006.40 1006.31 1006.30 1006.47 1006.64 1006.18 1006.66 1007.10 1007.08 1007.55 1007.96 1008.88 1009.87 1010.62 1011.19 1011.60
1007.46 1007.05 1006.85 1006.75 1006.69 1006.29 1006.21 1006.28 1006.23 1006.00 1006.15 1006.33 1006.31 1006.67 1007.17 1007.36 1007.86 1009.19 1010.02 1010.74 1011.62 1012.48
1007.05 1006.85 1006.64 1006.64 1006.53 1006.34 1006.22 1006.15 1006.16 1005.93 1005.80 1006.04 1006.18 1006.64 1007.17 1007.50 1008.11 1008.95 1009.86 1010.72 1011.60 1012.21
1006.63 1006.51 1006.44 1006.66 1006.64 1006.49 1006.19 1006.03 1005.86 1005.60 1005.96 1005.89 1006.17 1006.54 1006.95 1007.79 1008.55 1009.22 1010.18 1010.92 1011.84 1012.50
1006.30 1006.41 1006.43 1006.39 1006.52 1006.50 1006.48 1006.11 1005.88 1005.68 1005.84 1005.75 1006.20 1006.59 1007.11 1007.56 1008.62 1009.52 1010.20 1011.33 1012.11 1012.50
1006.28 1006.39 1006.53 1006.48 1006.33 1006.16 1006.16 1006.03 1005.93 1005.95 1005.93 1006.02 1006.10 1006.58 1007.06 1007.50 1008.35 1009.11 1010.05 1011.17 1012.31 1013.04
Wind_Speed
7 6 6 7 7 7 7 5 4 4 6 6 5 4 6 8 11 11 12 10 12 7
7 7 7 8 6 4 6 6 7 5 4 7 9 10 10 8 11 13 14 13 7 5
7 6 7 8 9 8 4 6 7 5 6 8 8 12 13 10 12 14 13 11 13 2
8 7 6 7 9 8 8 6 5 4 4 4 5 7 11 11 13 14 12 12 14 12
10 10 7 8 9 9 10 6 4 4 3 5 6 6 8 9 9 14 13 14 15 14
8 10 9 9 9 9 10 9 6 3 4 6 4 5 6 9 12 11 14 15 16 15
9 9 10 8 8 9 9 10 8 7 6 6 7 6 6 8 9 10 10 13 14 14
13 10 9 7 7 8 8 9 9 8 7 7 8 8 9 8 11 10 9 8 10 11
12 10 8 8 7 7 8 9 8 8 8 10 6 10 13 12 9 10 11 10 7 8
11 12 10 8 8 7 8 9 9 7 9 8 7 14 16 17 11 11 10 10 10 8
11 12 11 9 9 7 6 8 9 7 7 6 5 15 14 14 11 10 11 12 12 13
11 11 9 8 7 7 6 7 8 5 5 6 4 15 18 13 9 11 11 11 12 13
9 8 10 8 7 4 7 7 5 2 4 6 6 16 19 16 8 10 9 9 11 18
5 6 7 9 5 5 5 5 4 4 3 4 9 13 20 20 10 10 10 9 9 9
Wind_Direction
312 317 319 318 319 312 313 315 297 185 157 188 196 198 213 177 182 175 193 218 262 194
284 297 315 326 313 298 297 291 284 278 227 164 189 173 156 191 168 176 185 157 208 220
283 280 299 306 304 303 286 296 293 267 253 230 200 169 162 171 163 161 173 154 134 157
274 283 295 290 291 293 307 307 283 246 200 191 193 195 167 171 169 172 161 150 148 145
279 278 271 272 273 280 278 273 273 263 186 200 170 160 153 149 154 153 156 151 146 147
289 288 280 271 268 266 265 265 252 212 223 190 176 169 178 157 151 156 150 154 152 157
307 310 302 294 283 271 258 257 239 209 200 214 168 172 178 158 141 140 156 156 151 152
318 312 304 306 289 275 251 252 242 212 202 198 194 177 171 164 147 140 148 143 150 151
306 301 301 304 287 267 262 241 225 226 219 182 191 179 159 153 145 145 152 145 134 143
303 293 288 296 297 280 263 262 246 215 212 209 177 175 170 153 142 148 143 136 134 121
297 292 290 296 294 291 272 257 255 229 212 203 174 161 160 145 142 136 141 143 143 135
292 283 282 283 296 307 278 257 243 230 208 167 148 160 151 136 135 131 132 133 136 135
284 280 280 280 288 295 290 267 240 228 196 180 154 160 153 136 134 130 128 121 130 138
277 261 267 279 268 268 252 225 201 183 174 176 164 170 157 147 146 143 136 135 138 139